Location: De Knijp
(53.3833°N, 6.6667°E)
Time: 11:49:04
(UTC+00:00)

Daily predictions for brighter satellites

Satellite Brightness Start Highest point End
(mag) Time Altitude Azimuth Time Altitude Azimuth Time Altitude Azimuth
ADEOS 4.1 18:54:02 10° SE 18:58:54 42° ENE 19:03:47 10° N
BREEZE-M DEB (TANK) 3.8 18:58:22 10° S 18:59:49 15° SE 19:01:33 10° ESE
Feng Yun 1-1 Rocket 4.4 18:54:49 10° SE 19:00:16 58° ENE 19:05:39 10° N
SL-16 R/B 2.4 18:55:16 10° SSW 19:00:57 83° WNW 19:06:40 10° NNE
Terra 2.4 18:57:24 10° SE 19:01:47 40° ENE 19:06:10 10° N
ATLAS 5 CENTAUR R/B 2.4 18:59:03 10° W 19:01:52 35° NNW 19:05:01 10° NE
CSL-04 Debris 4.2 18:59:02 10° SSE 19:04:23 80° ENE 19:09:48 10° NNW
Meteor 1-22 Rocket 4.3 19:00:03 10° S 19:05:42 83° E 19:11:38 10° NNE
Cosmos 1898 Rocket 3.7 19:01:18 10° S 19:06:18 48° ESE 19:11:19 10° NE
CZ-4 R/B 1.2 19:02:47 10° SSE 19:06:34 68° ENE 19:10:19 10° N
Resurs 01 Rocket 3.6 19:04:50 10° SSW 19:08:45 31° W 19:12:41 10° NNW
Okean O Rocket 2.7 19:07:15 10° ESE 19:10:55 27° ENE 19:14:36 10° N
Meteor 1-24 Rocket 4.0 19:07:17 10° NNW 19:12:42 73° W 19:18:15 10° S
Cosmos 2333 4.2 19:10:14 10° SSW 19:15:44 62° ESE 19:21:17 10° NE
Cosmos 1680 Rocket 3.6 19:11:36 10° NNW 19:16:48 61° ENE 19:21:56 10° SE
Cosmos 372 Rocket 4.0 19:11:55 10° SSW 19:17:07 73° ESE 19:22:21 10° NNE
Cosmos 2219 Rocket 2.3 19:16:12 10° S 19:21:36 54° ESE 19:27:03 10° NE
SPOT 5 3.2 19:17:19 10° S 19:22:02 65° WSW 19:26:33 10° NNW
CZ-4B R/B 4.1 19:20:43 10° S 19:24:18 65° WSW 19:28:02 10° NNW
Cosmos 2074 Rocket 4.0 19:18:44 10° S 19:24:58 89° E 19:31:17 10° N
Meteor 1-31 Rocket 3.0 19:23:28 10° S 19:26:57 62° WSW 19:30:28 10° NNW
Cosmos 1937 Rocket 3.6 19:22:42 10° S 19:27:50 54° ESE 19:33:00 10° NNE
SL-24 R/B - RUBIN 2 3.6 19:26:44 10° NW 19:31:09 89° SW 19:35:17 13° SE
Cosmos 923 Rocket 4.1 19:27:27 10° NNW 19:32:48 82° WSW 19:38:05 10° SSE
Cosmos 2369 Rocket 4.2 19:29:54 10° NNW 19:33:31 17° NNE 19:37:08 10° ENE
USA 234 3.2 19:27:33 10° ENE 19:34:07 71° SSE 19:40:40 10° SW
Cosmos 2112 Rocket 4.0 19:29:09 10° NNW 19:34:24 70° ENE 19:39:17 12° SE
USA 186 2.3 19:34:28 18° E 19:35:03 20° ENE 19:36:46 10° NNE
NOSS 2-3 (E) 4.2 19:31:45 10° NW 19:36:32 83° SW 19:42:20 13° SE
SL-8 Rocket 4.5 19:31:35 10° SSE 19:37:19 41° E 19:43:08 10° NNE
USA 238 DEB 4.2 19:30:53 10° NW 19:37:54 60° NNE 19:44:50 13° ESE
USA 238 4.2 19:31:03 10° NW 19:38:04 59° NNE 19:45:00 13° ESE
COSMOS 2428 3.5 19:34:19 10° SSE 19:39:07 29° ESE 19:43:58 10° NE
NOSS 2-3 (C) 4.1 19:35:19 10° NW 19:40:00 86° NE 19:45:27 14° SE
Cosmos 1241 Rocket 4.5 19:34:08 10° NW 19:40:25 80° NE 19:45:53 14° SE
Cosmos 1953 3.3 19:37:49 10° SSW 19:41:16 44° WNW 19:44:46 10° N
PAYLOAD B 4.3 19:35:51 10° SSE 19:41:22 81° WSW 19:46:54 10° NNW
Meteor 1-15 Rocket 4.4 19:36:01 10° SSW 19:41:35 76° WNW 19:47:12 10° NNE
CZ-4B R/B 3.3 19:36:19 10° SSE 19:41:52 86° ENE 19:47:32 10° NNW
MetOp-B 4.1 19:36:53 10° SSE 19:42:15 87° ENE 19:47:40 10° NNW
CZ-4B DEB 4.5 19:37:04 10° S 19:42:31 72° WSW 19:48:01 10° NNW
Cosmos 2278 Rocket 2.6 19:37:52 10° NNW 19:43:26 51° NE 19:47:49 16° ESE
Cosmos 2366 rocket 4.3 19:41:32 10° SSE 19:47:17 43° E 19:53:01 10° NNE
NOSS 3-2 (C) 4.3 19:41:20 10° NW 19:48:22 69° SW 19:56:23 12° SSE
Cosmos 1610 Rocket 4.5 19:43:40 10° S 19:49:59 85° E 19:56:15 10° NNE
Ariane Rocket 4.1 19:46:48 16° ESE 19:49:59 29° ENE 19:54:18 10° N
Cosmos 2333 Rocket 3.2 19:44:51 10° SW 19:50:22 51° NW 19:55:54 10° NNE
Cosmos 1703 Rocket 4.1 19:48:37 10° NNW 19:52:54 58° W 19:57:07 10° S
Geosat 3.9 19:48:38 10° NE 19:53:39 71° ESE 19:58:38 10° SSW
BREEZE-M DEB (TANK) 2.5 19:54:17 10° WSW 19:56:44 46° S 19:59:32 19° ESE
Spot 2 Rocket 3.5 19:53:55 14° SSE 19:58:13 69° ENE 20:03:14 10° NNW
Cosmos 1470 Rocket 4.3 19:54:29 10° SSW 19:58:48 55° WNW 20:03:06 10° N
NOSS 2-3 (D) 4.4 19:54:02 10° NW 19:58:50 66° SW 20:03:54 16° SSE
Lacrosse 5 rocket 1.4 19:57:13 10° SSW 20:00:03 30° SE 20:00:40 27° ESE
CZ-2C R/B 3.6 20:00:39 20° E 20:01:11 21° ENE 20:03:27 10° NNE
Cosmos 1378 Rocket 4.4 19:57:15 10° N 20:01:16 33° ENE 20:03:21 22° ESE
ARIANE 6 FM1 Upper Stage 2.5 19:57:20 10° SW 20:01:28 89° SE 20:05:31 10° NE
ERS-1 Rocket 3.5 19:59:02 10° S 20:03:57 59° WSW 20:08:56 10° NNW
Cosmos 1933 Rocket 3.5 20:01:47 10° S 20:06:09 87° E 20:10:35 10° NNE
Cosmos 1943 Rocket 2.2 20:03:22 10° NNW 20:09:06 81° ENE 20:12:59 21° SE
Helios 1A Rocket 3.7 20:07:01 10° N 20:10:05 41° WNW 20:13:08 10° SW
YAOGAN 11 4.2 20:06:28 10° NNE 20:10:36 51° E 20:13:55 15° S
Cosmos 2218 Rocket 4.0 20:06:36 10° S 20:12:35 58° E 20:18:37 10° NNE
Meteor 1-11 4.4 20:07:41 10° N 20:13:11 55° ENE 20:16:33 23° SE
In-Cosmos 22 Rocket 4.2 20:08:47 10° NNW 20:14:10 75° W 20:19:03 12° S
USA 59 Rocket 0.4 20:12:48 10° NW 20:15:41 35° NNE 20:17:17 23° E
Meteor 1-12 Rocket 4.5 20:09:44 10° SSW 20:15:44 80° WNW 20:21:49 10° NNE
MOS 1-B 4.4 20:14:20 15° SSE 20:19:14 84° WSW 20:25:04 10° NNW
Cosmos 1733 Rocket 3.6 20:18:21 28° SE 20:19:58 39° E 20:24:03 10° NNE
Cosmos 494 Rocket 4.5 20:17:24 10° NNW 20:22:28 57° WSW 20:26:28 16° S
SeaSat 1 3.5 20:19:54 20° E 20:22:37 35° NE 20:27:03 10° NNW
CZ-4B R/B 3.5 20:20:21 26° SE 20:22:57 58° ENE 20:27:40 10° N
NOSS 3-4 (A) 4.1 20:23:13 24° ESE 20:23:13 24° ESE 20:27:29 10° ENE
NOSS 3-4 (C) 4.2 20:23:46 24° ESE 20:23:46 24° ESE 20:28:00 10° ENE
Okean-O 2.7 20:20:35 19° S 20:23:40 77° WSW 20:28:05 10° NNW
IRS-1C Rocket 4.4 20:20:58 25° SE 20:23:49 53° ENE 20:28:58 10° N
ATLAS 3B R/B 3.7 20:18:21 10° WSW 20:26:02 57° NNW 20:33:48 10° NE
Cosmos 1048 Rocket 3.9 20:21:51 10° NNW 20:27:00 87° ENE 20:29:52 27° SSE
Cosmos 1821 Rocket 4.1 20:22:24 17° SSE 20:27:05 55° E 20:33:14 10° NNE
Cosmos 2360 Rocket 3.5 20:23:55 10° WSW 20:29:16 43° NW 20:34:40 10° NNE
Timation 2 Rocket 4.0 20:26:15 10° NW 20:32:31 89° ENE 20:36:19 27° SSE
NOSS 2-1 (E) 4.0 20:31:19 10° NW 20:34:14 34° NNE 20:35:22 27° ENE
NOSS 2-1 (C) 3.8 20:33:01 10° NW 20:35:58 38° NE 20:36:58 30° ENE
Cosmos 1869 Rocket 3.9 20:31:49 10° SSW 20:36:10 68° WNW 20:40:35 10° N
Cosmos 2322 Rocket 3.8 20:32:12 10° WSW 20:37:22 37° NW 20:42:35 10° NNE
Aureole 3 3.5 20:34:03 10° N 20:38:02 77° ENE 20:40:03 33° SSE
Meteor 2-21 4.4 20:32:43 10° N 20:38:52 86° E 20:42:49 24° SSE
Terra 3.3 20:35:09 10° SSW 20:39:23 33° W 20:43:38 10° NNW
CZ-4 R/B 4.1 20:38:55 10° WSW 20:41:01 14° W 20:43:07 10° NW
NOSS 2-1 (D) 3.5 20:38:42 10° NW 20:41:43 46° NE 20:42:33 38° ENE
Cosmos 468 4.5 20:37:55 10° NNW 20:43:09 73° ENE 20:45:23 35° SE
Cosmos 2242 Rocket 3.6 20:39:46 10° NNW 20:44:18 83° W 20:46:21 32° S
ATLAS 5 CENTAUR R/B 3.7 20:42:34 10° NW 20:44:52 17° N 20:47:26 10° NE
SL-08 R/B 3.9 20:41:31 10° N 20:46:20 61° WNW 20:51:10 10° SSW
Okean O Rocket 2.5 20:43:57 18° SSW 20:46:56 45° W 20:51:08 10° NNW
Cosmos 1025 Rocket 3.2 20:44:22 10° N 20:48:32 52° ENE 20:49:24 44° ESE
Cosmos 2237 Rocket 2.6 20:47:31 33° SSE 20:49:10 41° ESE 20:54:28 10° NE
Cosmos 1980 4.0 20:47:57 32° SSE 20:49:58 44° ESE 20:55:18 10° NE
Cosmos 1125 Rocket 4.1 20:51:20 35° ESE 20:51:46 36° ESE 20:56:32 10° NE
Cosmos 2292 Rocket 4.1 20:46:20 10° N 20:52:20 64° ENE 20:54:03 40° SE
CZ-4B R/B 2.7 20:51:35 44° S 20:52:33 68° WSW 20:56:06 10° NNW
Cosmos 2322 3.7 20:47:22 10° SSW 20:53:06 87° WNW 20:58:53 10° NNE
ASTEX 1 3.4 20:50:47 29° S 20:53:18 83° W 20:58:15 10° N
Cosmos 2341 Rocket 4.3 20:48:50 10° SSW 20:55:02 69° WNW 21:01:21 10° N
Cosmos 1400 Rocket 2.6 21:03:02 61° ENE 21:03:02 61° ENE 21:06:22 10° NNE
USA 186 4.0 21:04:43 12° W 21:04:43 12° W 21:05:29 10° WNW
SPOT 3 Rocket 3.7 21:02:10 31° S 21:04:40 68° WSW 21:09:52 10° NNW
Cosmos 2219 Rocket 3.7 21:00:36 10° WSW 21:05:47 38° NW 21:11:00 10° NNE
Meteor 2-21 Rocket 4.5 21:05:47 10° NNW 21:11:54 80° W 21:14:51 33° S
USA 234 3.5 21:10:41 10° ENE 21:17:12 71° N 21:23:44 10° W
Cosmos 2369 Rocket 2.9 21:13:40 10° NNW 21:19:02 44° NE 21:20:57 33° E
Cosmos 1674 Rocket 3.6 21:14:50 10° NNW 21:19:07 71° W 21:19:57 54° SSW
Cosmos 1908 Rocket 3.8 21:22:14 49° E 21:22:14 49° E 21:26:10 10° NNE
COSMOS 2428 3.1 21:17:16 10° SW 21:22:58 66° NW 21:28:43 10° NNE
Helios 1B rocket 3.1 21:23:49 35° NE 21:23:49 35° NE 21:26:33 10° N
Cosmos 1727 Rocket 4.3 21:19:00 10° NNW 21:25:17 64° W 21:28:33 29° SSW
NOSS 0 Rocket 3.9 21:19:39 10° SSW 21:25:55 89° WNW 21:32:12 10° NE
Cosmos 2278 Rocket 3.2 21:22:11 10° NW 21:27:23 38° WSW 21:29:39 27° SSW
Ariane Rocket 3.5 21:26:52 36° SSW 21:28:38 54° W 21:33:35 10° NNW
USA 238 DEB 4.2 21:21:54 10° NW 21:29:03 57° SW 21:32:16 36° S
USA 238 4.2 21:22:04 10° NW 21:29:14 58° SW 21:32:26 36° S
Cosmos 2221 Rocket 3.4 21:25:22 10° NNW 21:29:47 89° W 21:30:11 74° S
Cosmos 1346 Rocket 2.9 21:28:13 10° NNW 21:31:34 62° WNW 21:31:34 62° WNW
CZ-2C R/B 4.0 21:32:30 26° W 21:32:30 26° W 21:34:38 10° NW
Helios 1A 4.0 21:30:17 10° NNE 21:32:54 32° ENE 21:32:54 32° ENE
Lacrosse 5 rocket 3.2 21:33:20 10° WSW 21:34:04 16° W 21:34:04 16° W
ARIANE 6 FM1 Upper Stage 4.5 21:37:14 10° W 21:40:52 30° NNW 21:44:28 10° NE
Cosmos 2058 4.2 21:38:52 10° N 21:41:48 29° NE 21:41:48 29° NE
DNEPR-1 R/B 3.5 21:45:57 72° NE 21:45:57 72° NE 21:50:02 10° NE
Cosmos 1656 Rocket 3.6 21:44:00 10° NW 21:49:26 73° WSW 21:50:17 61° S
Cosmos 1943 Rocket 4.0 21:47:57 10° NW 21:52:12 22° WSW 21:54:29 17° SW
Cosmos 405 Rocket 4.3 21:51:13 10° N 21:52:34 23° N 21:52:34 23° N
SJ 16-02 3.6 21:53:07 10° N 21:55:34 15° NE 21:56:48 13° ENE
SL-16 R/B 2.9 21:58:05 37° E 21:58:05 37° E 22:02:27 10° NE
SeaSat 1 2.6 21:59:30 55° SW 21:59:50 57° WSW 22:04:41 10° NW
Cosmos 2123 Rocket 4.3 21:55:43 10° NNW 22:01:52 61° W 22:03:50 42° SSW
USA 59 Rocket 1.4 22:01:10 10° WNW 22:02:48 24° W 22:02:48 24° W
CZ-2C R/B 4.4 22:02:52 19° E 22:04:38 22° NE 22:08:47 10° N
Cosmos 1934 Rocket 4.0 22:03:44 48° SSW 22:05:40 82° W 22:11:58 10° N
Cosmos 1140 Rocket 3.7 22:03:12 10° NNW 22:08:18 55° ENE 22:08:44 53° ENE
Cosmos 921 Rocket 4.1 22:04:14 10° N 22:08:19 36° NE 22:08:19 36° NE
Cosmos 2346 Rocket 4.3 22:02:49 10° N 22:08:57 77° ENE 22:09:59 62° SE
NOSS 3-4 (A) 3.2 22:10:28 33° SW 22:13:04 83° NW 22:19:09 10° NE
Cosmos 1315 Rocket 4.4 22:15:09 27° NE 22:15:09 27° NE 22:17:06 10° NNE
NOSS 3-4 (C) 3.2 22:11:02 34° SW 22:13:33 83° NW 22:19:41 10° NE
Cosmos 1300 Rocket 3.8 22:17:13 64° NNW 22:17:13 64° NNW 22:20:56 10° N
ATLAS 3B R/B 4.3 22:11:00 10° WNW 22:18:19 39° N 22:25:34 10° ENE
Cosmos 2285 Rocket 3.9 22:19:16 64° SSE 22:20:00 69° ESE 22:26:20 10° NNE
Cosmos 967 Rocket 4.4 22:19:07 10° NW 22:25:38 88° NE 22:26:46 64° SE
NOSS 3-1 (C) 3.8 22:19:35 10° NW 22:26:15 87° NE 22:28:44 49° SE
Cosmos 1535 Rocket 4.3 22:26:51 65° SSW 22:27:51 88° W 22:34:01 10° N
ATLAS 5 CENTAUR R/B 3.3 22:25:02 10° NW 22:28:03 24° NNE 22:29:34 19° NE
RESURS DK-1 3.4 22:30:06 39° NNE 22:30:06 39° NNE 22:32:46 10° NNE
ALOS 2 3.1 22:29:40 54° NE 22:29:40 54° NE 22:33:26 10° N
Cosmos 2237 Rocket 3.0 22:29:12 18° WSW 22:33:11 48° NW 22:38:43 10° NNE
Cosmos 1125 Rocket 4.4 22:31:27 29° WSW 22:33:40 46° NW 22:38:45 10° NNE
Cosmos 1605 Rocket 3.8 22:32:45 66° SSW 22:33:40 86° W 22:39:49 10° N
Cosmos 1269 Rocket 3.9 22:31:55 10° NNW 22:37:13 81° ENE 22:37:13 81° ENE
Cosmos 2297 3.6 22:31:31 10° NW 22:37:17 73° WSW 22:37:29 72° SW
ARIANE 5 R/B 3.0 22:40:11 59° NNW 22:40:11 59° NNW 22:43:45 10° NNW
Cosmos 1975 Rocket 3.8 22:37:47 10° NNW 22:41:32 48° WNW 22:41:32 48° WNW
COSMOS 2455 3.3 22:37:41 10° NW 22:43:37 54° NE 22:45:16 42° E
Cosmos 304 Rocket 4.4 22:42:59 10° NNW 22:47:28 47° NE 22:47:28 47° NE
Cosmos 44 4.5 22:51:59 36° ENE 22:51:59 36° ENE 22:55:23 10° NE
MetOp-A 4.2 22:51:08 60° NE 22:51:08 60° NE 22:55:53 10° N
Cosmos 2150 Rocket 4.0 22:54:11 76° NW 22:54:11 76° NW 22:59:20 10° NNE
Cosmos 2173 Rocket 4.1 22:55:45 56° E 22:55:57 56° E 23:01:53 10° NNE
CZ-2C R/B 4.2 22:52:13 10° NNE 22:55:50 30° ENE 22:55:50 30° ENE
USA 234 3.5 22:53:30 10° E 23:00:00 69° N 23:06:31 10° WNW
Cosmos 2100 Rocket 4.0 23:00:25 62° ESE 23:00:41 62° E 23:06:46 10° NNE
Cosmos 2251 Rocket 4.3 22:57:39 10° NNW 23:02:43 42° NE 23:03:27 40° ENE
Cosmos 371 Rocket 3.7 22:58:06 10° NNW 23:02:35 56° NE 23:02:35 56° NE
Cosmos 2369 Rocket 2.8 22:57:48 10° NW 23:02:43 44° W 23:02:43 44° W
NOSS 3-1 (A) 3.8 23:10:40 10° NW 23:17:24 86° NE 23:19:58 48° SE
Cosmos 1943 3.4 23:21:35 60° E 23:21:35 60° E 23:26:39 10° NE
SJ 16-02 2.2 23:30:10 10° NNW 23:33:16 46° N 23:33:16 46° N
Cosmos 407 Rocket 3.8 23:30:01 10° NNW 23:34:21 58° WNW 23:34:21 58° WNW
Meteor 2-12 Rocket 4.5 23:29:36 10° N 23:35:40 67° ENE 23:36:15 63° ESE
Cosmos 1980 Rocket 4.5 23:31:23 10° NNW 23:35:43 22° NNE 23:40:02 10° E
ACS3 Solar Sail 3.3 23:34:43 10° NE 23:39:20 23° E 23:40:25 22° E
Cosmos 1864 Rocket 4.3 23:39:22 75° SSE 23:39:49 81° E 23:46:11 10° NNE
SL-16 R/B 2.9 23:39:53 41° W 23:41:13 49° NW 23:46:45 10° NNE
Cosmos 1802 Rocket 3.9 23:43:35 76° SSE 23:44:08 85° E 23:50:29 10° NNE
CZ-2C R/B 2.6 23:44:18 86° W 23:44:18 86° W 23:49:50 10° NNW
SL-08 R/B 4.4 23:44:27 64° ESE 23:44:48 66° E 23:50:56 10° NNE
Cosmos 2151 Rocket 4.4 23:46:57 49° NNW 23:46:57 49° NNW 23:50:23 10° N
Meteor 2-3 Rocket 3.8 23:40:28 10° NNW 23:45:50 64° W 23:45:50 64° W
Cosmos 1725 Rocket 3.8 23:48:08 76° SSE 23:48:41 84° E 23:55:02 10° NNE
Cosmos 1818 4.0 23:44:57 10° NW 23:50:22 59° NE 23:51:37 47° E
